• In Belarus
  • List of Countries
  • For 7 days
  • Water Temperature
  • Satellite Maps
  • Weather Map
  • Weather Widgets
  • user-avatar
    Login

    Hourly Weather Chiknayakanhalli

    Today, 18 September, Tuesday

    Time Temperature Precipitation Wind Pressure Humidity
    00:00 +22°C° 0 mm 3 mps 689 mmHg 84%
    01:00 +22°C° 0 mm 3 mps 688 mmHg 85%
    02:00 +22°C° 0 mm 3 mps 688 mmHg 85%
    03:00 +22°C° 0 mm 3 mps 688 mmHg 86%
    04:00 +21°C° 0 mm 3 mps 688 mmHg 86%
    05:00 +21°C° 0 mm 2 mps 688 mmHg 87%
    06:00 +22°C° 0 mm 3 mps 688 mmHg 82%
    07:00 +24°C° 0 mm 3 mps 689 mmHg 78%
    08:00 +25°C° 0 mm 4 mps 689 mmHg 73%
    09:00 +26°C° 0 mm 4 mps 689 mmHg 66%
    10:00 +28°C° 0 mm 5 mps 689 mmHg 58%
    11:00 +30°C° 0 mm 4 mps 690 mmHg 51%
    12:00 +30°C° 0 mm 4 mps 689 mmHg 50%
    13:00 +32°C° 0 mm 4 mps 689 mmHg 48%
    14:00 +32°C° 0 mm 4 mps 688 mmHg 47%
    15:00 +30°C° 0.1 mm 4 mps 688 mmHg 50%
    16:00 +30°C° 0.1 mm 4 mps 688 mmHg 53%
    17:00 +29°C° 0 mm 4 mps 688 mmHg 58%
    18:00 +27°C° 0.7 mm 4 mps 688 mmHg 64%
    19:00 +26°C° 0.7 mm 4 mps 689 mmHg 70%
    20:00 +25°C° 0.7 mm 4 mps 689 mmHg 76%
    21:00 +23°C° 0 mm 4 mps 689 mmHg 79%
    22:00 +23°C° 0 mm 4 mps 689 mmHg 82%
    23:00 +22°C° 0 mm 4 mps 689 mmHg 85%

    Tomorrow, 19 September, Wednesday

    Time Temperature Precipitation Wind Pressure Humidity
    00:00 +22°C° 0 mm 4 mps 689 mmHg 85%
    01:00 +22°C° 0 mm 4 mps 688 mmHg 86%
    02:00 +21°C° 0 mm 4 mps 688 mmHg 86%
    03:00 +21°C° 0 mm 4 mps 688 mmHg 86%
    04:00 +21°C° 0 mm 3 mps 688 mmHg 86%
    05:00 +21°C° 0 mm 3 mps 688 mmHg 86%
    06:00 +21°C° 0 mm 4 mps 689 mmHg 83%
    07:00 +22°C° 0 mm 4 mps 689 mmHg 80%
    08:00 +23°C° 0 mm 4 mps 689 mmHg 77%
    09:00 +25°C° 0 mm 5 mps 689 mmHg 71%
    10:00 +26°C° 0 mm 5 mps 689 mmHg 66%
    11:00 +27°C° 0 mm 5 mps 690 mmHg 60%
    12:00 +28°C° 0 mm 5 mps 689 mmHg 58%
    13:00 +28°C° 0 mm 5 mps 688 mmHg 55%
    14:00 +29°C° 0 mm 5 mps 688 mmHg 52%
    15:00 +29°C° 0 mm 4 mps 688 mmHg 53%
    16:00 +29°C° 0 mm 4 mps 687 mmHg 55%
    17:00 +29°C° 0 mm 4 mps 687 mmHg 56%
    18:00 +27°C° 0 mm 4 mps 688 mmHg 60%
    19:00 +26°C° 0 mm 4 mps 688 mmHg 65%
    20:00 +25°C° 0 mm 3 mps 688 mmHg 69%
    21:00 +25°C° 0 mm 4 mps 688 mmHg 73%
    22:00 +23°C° 0 mm 4 mps 688 mmHg 77%
    23:00 +22°C° 0 mm 4 mps 688 mmHg 81%

    Day after tomorrow, 20 September, Thursday

    Time Temperature Precipitation Wind Pressure Humidity
    00:00 +22°C° 0 mm 3 mps 688 mmHg 82%
    01:00 +21°C° 0 mm 3 mps 687 mmHg 83%
    02:00 +21°C° 0 mm 3 mps 687 mmHg 84%
    03:00 +20°C° 0 mm 3 mps 687 mmHg 84%
    04:00 +20°C° 0 mm 3 mps 687 mmHg 84%
    05:00 +20°C° 0 mm 3 mps 686 mmHg 85%
    06:00 +21°C° 0 mm 3 mps 687 mmHg 80%
    07:00 +22°C° 0 mm 3 mps 688 mmHg 75%
    08:00 +23°C° 0 mm 4 mps 688 mmHg 71%
    09:00 +26°C° 0 mm 4 mps 688 mmHg 65%
    10:00 +28°C° 0 mm 3 mps 688 mmHg 59%
    11:00 +30°C° 0 mm 3 mps 689 mmHg 53%
    12:00 +30°C° 0.2 mm 3 mps 688 mmHg 51%
    13:00 +31°C° 0.2 mm 3 mps 687 mmHg 49%
    14:00 +31°C° 0.2 mm 3 mps 687 mmHg 48%
    15:00 +30°C° 0.5 mm 3 mps 687 mmHg 52%
    16:00 +30°C° 0.5 mm 3 mps 686 mmHg 56%
    17:00 +29°C° 0.5 mm 3 mps 686 mmHg 60%
    18:00 +27°C° 1.7 mm 3 mps 687 mmHg 66%
    19:00 +26°C° 1.7 mm 4 mps 687 mmHg 71%
    20:00 +25°C° 1.7 mm 4 mps 687 mmHg 77%
    21:00 +25°C° 0.2 mm 4 mps 687 mmHg 80%
    22:00 +23°C° 0.2 mm 4 mps 687 mmHg 82%
    23:00 +23°C° 0.2 mm 4 mps 687 mmHg 85%

    21 September, Friday

    Time Temperature Precipitation Wind Pressure Humidity
    00:00 +22°C° 0 mm 4 mps 687 mmHg 86%
    01:00 +22°C° 0 mm 4 mps 686 mmHg 87%
    02:00 +22°C° 0 mm 4 mps 686 mmHg 88%
    03:00 +22°C° 0 mm 3 mps 686 mmHg 89%
    04:00 +21°C° 0 mm 3 mps 686 mmHg 89%
    05:00 +21°C° 0 mm 3 mps 686 mmHg 89%
    06:00 +22°C° 0.1 mm 3 mps 687 mmHg 86%
    07:00 +24°C° 0.1 mm 3 mps 687 mmHg 84%
    08:00 +24°C° 0.1 mm 3 mps 688 mmHg 81%
    09:00 +25°C° 0.2 mm 3 mps 688 mmHg 77%
    10:00 +26°C° 0.2 mm 4 mps 688 mmHg 73%
    11:00 +27°C° 0.2 mm 4 mps 688 mmHg 69%
    12:00 +27°C° 0.7 mm 4 mps 688 mmHg 69%
    13:00 +27°C° 0.7 mm 4 mps 687 mmHg 69%
    14:00 +27°C° 0.7 mm 3 mps 687 mmHg 68%
    15:00 +27°C° 1 mm 4 mps 687 mmHg 72%
    16:00 +26°C° 1 mm 4 mps 687 mmHg 75%
    17:00 +26°C° 1 mm 4 mps 686 mmHg 79%
    18:00 +25°C° 0.5 mm 4 mps 687 mmHg 82%
    19:00 +24°C° 0.5 mm 3 mps 688 mmHg 84%
    20:00 +24°C° 0.5 mm 3 mps 688 mmHg 87%
    21:00 +24°C° 0.1 mm 3 mps 688 mmHg 87%
    22:00 +22°C° 0.1 mm 3 mps 688 mmHg 88%
    23:00 +22°C° 0.1 mm 3 mps 688 mmHg 88%

    22 September, Saturday

    Time Temperature Precipitation Wind Pressure Humidity
    00:00 +22°C° 0.1 mm 3 mps 688 mmHg 89%
    01:00 +22°C° 0.1 mm 3 mps 687 mmHg 89%
    02:00 +22°C° 0.1 mm 3 mps 687 mmHg 89%
    03:00 +22°C° 0 mm 3 mps 687 mmHg 90%
    04:00 +21°C° 0 mm 3 mps 687 mmHg 90%
    05:00 +21°C° 0 mm 3 mps 687 mmHg 90%
    06:00 +22°C° 0 mm 3 mps 688 mmHg 87%
    07:00 +24°C° 0 mm 3 mps 688 mmHg 84%
    08:00 +23°C° 0 mm 4 mps 689 mmHg 81%
    09:00 +26°C° 0.1 mm 4 mps 689 mmHg 75%
    10:00 +27°C° 0.1 mm 4 mps 689 mmHg 68%
    11:00 +29°C° 0.1 mm 4 mps 689 mmHg 62%
    12:00 +29°C° 0.8 mm 4 mps 688 mmHg 62%
    13:00 +29°C° 0.8 mm 4 mps 688 mmHg 62%
    14:00 +29°C° 0.8 mm 4 mps 687 mmHg 62%
    15:00 +28°C° 1.7 mm 4 mps 687 mmHg 67%
    16:00 +27°C° 1.7 mm 4 mps 687 mmHg 72%
    17:00 +26°C° 1.7 mm 3 mps 687 mmHg 76%
    18:00 +26°C° 1 mm 3 mps 688 mmHg 79%
    19:00 +25°C° 1 mm 3 mps 688 mmHg 82%
    20:00 +24°C° 1 mm 3 mps 689 mmHg 85%
    21:00 +24°C° 0.6 mm 3 mps 689 mmHg 86%
    22:00 +24°C° 0.6 mm 3 mps 689 mmHg 87%
    23:00 +22°C° 0.6 mm 3 mps 689 mmHg 88%

    23 September, Sunday

    Time Temperature Precipitation Wind Pressure Humidity
    00:00 +22°C° 0 mm 3 mps 688 mmHg 89%
    01:00 +22°C° 0 mm 3 mps 688 mmHg 90%
    02:00 +21°C° 0 mm 3 mps 687 mmHg 91%
    03:00 +21°C° 0 mm 2 mps 687 mmHg 91%
    04:00 +21°C° 0 mm 2 mps 687 mmHg 91%
    05:00 +21°C° 0 mm 2 mps 688 mmHg 92%
    06:00 +23°C° 0 mm 2 mps 688 mmHg 87%
    07:00 +24°C° 0 mm 2 mps 689 mmHg 82%
    08:00 +25°C° 0 mm 2 mps 690 mmHg 77%
    09:00 +26°C° 0 mm 2 mps 690 mmHg 71%
    10:00 +28°C° 0 mm 2 mps 690 mmHg 65%
    11:00 +29°C° 0 mm 2 mps 690 mmHg 60%
    12:00 +29°C° 0.5 mm 3 mps 689 mmHg 59%
    13:00 +30°C° 0.5 mm 3 mps 688 mmHg 58%
    14:00 +30°C° 0.5 mm 3 mps 688 mmHg 57%
    15:00 +29°C° 2.8 mm 3 mps 688 mmHg 63%
    16:00 +28°C° 2.8 mm 2 mps 688 mmHg 70%
    17:00 +27°C° 2.8 mm 2 mps 688 mmHg 77%
    18:00 +26°C° 2.3 mm 2 mps 688 mmHg 79%
    19:00 +26°C° 2.3 mm 2 mps 689 mmHg 82%
    20:00 +25°C° 2.3 mm 2 mps 689 mmHg 84%
    21:00 +25°C° 0.9 mm 2 mps 689 mmHg 85%
    22:00 +25°C° 0.9 mm 2 mps 689 mmHg 85%
    23:00 +24°C° 0.9 mm 2 mps 689 mmHg 86%
    Show more